European Causeway — C6RG7 — position and weather

sailwx.info

Track history (hours):
 
Tides and Currents Weather Stations Pressure Air Temp Water Temp Dewpoint Dewpoint Depression Visibility Wind Speed Wind Dir Waves Ship Positions

European Causeway

Operator: P & O Irish Sea

Last reported at 2014-Oct-22 05:33 UTC. Time now 2014-Oct-22 06:31 UTC.
Position N 54°59' W 005°23'.

Length 165 m; draft 5.5 m.

Type: Ship (hazmat cat A). MMSI: 311027000.

Date/timePositionNaut miles runAvg speedWind from/ knotsBaromVisibWave heightAir tempDewpointWater temp
2014-Oct-22 05:33N 54°59' W 005°23'1312.5
2014-Oct-22 04:33N 54°58' W 005°01'0 0.0
2014-Oct-22 03:28N 54°58' W 005°01'0 0.0
2014-Oct-22 02:33N 54°58' W 005°01'0 0.0
2014-Oct-22 01:33N 54°58' W 005°01'1514.7
2014-Oct-22 00:33N 54°57' W 005°27'1313.6
2014-Oct-21 23:33N 54°51' W 005°48'0 0.0
2014-Oct-21 22:33N 54°51' W 005°48'0 0.0
2014-Oct-21 21:33N 54°51' W 005°48'1312.8
2014-Oct-21 20:33N 54°57' W 005°28'1515.4
2014-Oct-21 19:33N 54°58' W 005°02'0 0.5
2014-Oct-21 18:29N 54°58' W 005°01'0 0.0
2014-Oct-21 17:33N 54°58' W 005°01'0 0.0
2014-Oct-21 16:33N 54°58' W 005°01'0 0.0
2014-Oct-21 15:30N 54°58' W 005°01'0 0.0
2014-Oct-21 14:33N 54°58' W 005°01'0 0.0
2014-Oct-21 13:33N 54°58' W 005°01'0 0.0
2014-Oct-21 12:33N 54°58' W 005°01'0 0.0
2014-Oct-21 11:29N 54°58' W 005°01'0 0.0
2014-Oct-21 10:33N 54°58' W 005°01'0 0.0
2014-Oct-21 09:33N 54°58' W 005°01'0 0.0
2014-Oct-21 08:33N 54°58' W 005°01'0 0.0
2014-Oct-21 07:21N 54°58' W 005°01'0 0.0
2014-Oct-21 06:26N 54°58' W 005°01'0 0.0
2014-Oct-21 05:33N 54°58' W 005°01'0 0.0
2014-Oct-21 04:33N 54°58' W 005°01'0 0.0
2014-Oct-21 03:31N 54°58' W 005°01'0 0.0
2014-Oct-21 02:33N 54°58' W 005°01'0 0.0
2014-Oct-21 01:33N 54°58' W 005°01'6 5.6
2014-Oct-21 00:31N 55°01' W 005°09'2021.3
2014-Oct-20 23:33N 54°54' W 005°41'5 4.6
2014-Oct-20 22:34N 54°51' W 005°48'0 0.0
2014-Oct-20 21:31N 54°51' W 005°48'7 7.5
2014-Oct-20 20:33N 54°55' W 005°37'1716.0
2014-Oct-20 19:28N 55°01' W 005°09'6 4.7
2014-Oct-20 18:10N 54°58' W 005°01'0 0.1
2014-Oct-20 17:33N 54°58' W 005°01'1312.5
2014-Oct-20 16:33N 54°57' W 005°23'1615.2
2014-Oct-20 15:31N 54°51' W 005°48'0 0.0
2014-Oct-20 14:34N 54°51' W 005°48'1413.9
2014-Oct-20 13:33N 54°58' W 005°27'1514.0
2014-Oct-20 12:30N 54°58' W 005°01'0 0.1
2014-Oct-20 11:32N 54°58' W 005°01'1313.4
2014-Oct-20 10:33N 54°57' W 005°24'1515.3
2014-Oct-20 09:33N 54°51' W 005°48'0 0.0
2014-Oct-20 08:34N 54°51' W 005°48'1414.1
2014-Oct-20 07:33N 54°58' W 005°26'1413.8
2014-Oct-20 06:33N 54°58' W 005°02'1 0.9
2014-Oct-20 05:24N 54°58' W 005°01'5 6.1
2014-Oct-20 04:32N 55°02' W 005°07'1817.5
2014-Oct-20 03:31N 54°54' W 005°36'8 8.1
2014-Oct-20 02:33N 54°51' W 005°48'0 0.0
2014-Oct-20 01:33N 54°51' W 005°48'0 0.0
2014-Oct-20 00:33N 54°51' W 005°48'5 4.7
2014-Oct-19 23:34N 54°53' W 005°41'1716.8
2014-Oct-19 22:34N 55°00' W 005°14'8 8.2
2014-Oct-19 21:33N 54°58' W 005°01'6 5.6
2014-Oct-19 20:28N 55°02' W 005°09'1617.8
2014-Oct-19 19:33N 54°55' W 005°35'8 8.2
2014-Oct-19 18:33N 54°51' W 005°48'0 0.1
2014-Oct-19 17:33N 54°51' W 005°48'1615.6
2014-Oct-19 16:33N 54°58' W 005°24'1312.4
2014-Oct-19 15:30N 54°58' W 005°01'0 0.0
2014-Oct-19 14:33N 54°58' W 005°01'6 6.2
2014-Oct-19 13:33N 55°01' W 005°10'1917.7
2014-Oct-19 12:31N 54°54' W 005°39'6 6.2
2014-Oct-19 11:33N 54°51' W 005°48'0 0.0
2014-Oct-19 10:33N 54°51' W 005°48'0 0.0
2014-Oct-19 09:33N 54°51' W 005°48'0 0.0
2014-Oct-19 08:33N 54°51' W 005°48'1414.0
2014-Oct-19 07:33N 54°58' W 005°26'1413.7
2014-Oct-19 06:31N 54°58' W 005°02'1 0.6
2014-Oct-19 05:33N 54°58' W 005°01'0 0.0
2014-Oct-19 04:33N 54°58' W 005°01'0 0.0
2014-Oct-19 03:31N 54°58' W 005°01'0 0.0
2014-Oct-19 02:33N 54°58' W 005°01'0 0.0
2014-Oct-19 01:33N 54°58' W 005°01'0 0.0
2014-Oct-19 00:32N 54°58' W 005°01'0 0.0
2014-Oct-18 23:33N 54°58' W 005°01'0 0.0
2014-Oct-18 22:33N 54°58' W 005°01'0 0.0
2014-Oct-18 21:22N 54°58' W 005°01'5 6.6
2014-Oct-18 20:33N 55°02' W 005°07'1716.9
2014-Oct-18 19:33N 54°55' W 005°34'9 8.6
2014-Oct-18 18:33N 54°51' W 005°48'0 0.0
2014-Oct-18 17:33N 54°51' W 005°48'1413.6
2014-Oct-18 16:33N 54°57' W 005°27'1514.3
2014-Oct-18 15:32N 54°58' W 005°02'1 0.6
2014-Oct-18 14:33N 54°58' W 005°01'1111.3
2014-Oct-18 13:34N 54°58' W 005°21'1716.9
2014-Oct-18 12:33N 54°51' W 005°48'0 0.1
2014-Oct-18 11:33N 54°51' W 005°48'1514.9
2014-Oct-18 10:33N 54°58' W 005°25'1413.4
2014-Oct-18 09:31N 54°58' W 005°01'0 0.0
2014-Oct-18 08:33N 54°58' W 005°01'1211.9
2014-Oct-18 07:33N 54°58' W 005°21'1716.5
2014-Oct-18 06:33N 54°51' W 005°48'0 0.1
2014-Oct-18 05:33N 54°51' W 005°48'4 4.5
2014-Oct-18 04:33N 54°53' W 005°41'2019.3
2014-Oct-18 03:32N 55°02' W 005°10'7 6.7
2014-Oct-18 02:33N 54°58' W 005°01'0 0.0
2014-Oct-18 01:33N 54°58' W 005°01'5 5.4
2014-Oct-18 00:33N 55°02' W 005°07'1817.8
2014-Oct-17 23:33N 54°54' W 005°36'8 7.8
2014-Oct-17 22:33N 54°51' W 005°48'0 0.0
2014-Oct-17 21:33N 54°51' W 005°48'4 4.5
2014-Oct-17 20:33N 54°53' W 005°41'1717.3
2014-Oct-17 19:33N 55°01' W 005°14'8 7.9
2014-Oct-17 18:31N 54°58' W 005°01'0 0.0
2014-Oct-17 17:33N 54°58' W 005°01'1111.4
2014-Oct-17 16:33N 54°58' W 005°21'1717.0
2014-Oct-17 15:33N 54°51' W 005°48'0 0.0
2014-Oct-17 14:34N 54°51' W 005°48'1616.3
2014-Oct-17 13:33N 54°59' W 005°23'1312.1
2014-Oct-17 12:31N 54°58' W 005°01'0 0.0
2014-Oct-17 11:32N 54°58' W 005°01'1111.1
2014-Oct-17 10:33N 54°58' W 005°20'1817.6
2014-Oct-17 09:33N 54°51' W 005°48'0 0.0
2014-Oct-17 08:33N 54°51' W 005°48'1414.1
2014-Oct-17 07:33N 54°58' W 005°26'15 7.3
2014-Oct-17 05:33N 54°58' W 005°01'6 5.6
2014-Oct-17 04:30N 55°01' W 005°09'1717.6
2014-Oct-17 03:33N 54°54' W 005°35'8 8.2
2014-Oct-17 02:33N 54°51' W 005°48'0 0.0
2014-Oct-17 01:33N 54°51' W 005°48'5 4.3
2014-Oct-17 00:31N 54°53' W 005°41'1717.6
2014-Oct-16 23:33N 55°00' W 005°15'8 8.3
2014-Oct-16 22:33N 54°58' W 005°01'0 0.0
2014-Oct-16 21:31N 54°58' W 005°01'6 5.6
2014-Oct-16 20:28N 55°02' W 005°09'1819.6
2014-Oct-16 19:32N 54°54' W 005°37'7 6.8
2014-Oct-16 18:33N 54°51' W 005°48'0 0.0
2014-Oct-16 17:33N 54°51' W 005°48'1414.4
2014-Oct-16 16:33N 54°58' W 005°26'1413.7
2014-Oct-16 15:31N 54°58' W 005°01'0 0.1
2014-Oct-16 14:33N 54°58' W 005°01'1312.7
2014-Oct-16 13:33N 54°57' W 005°23'1615.0
2014-Oct-16 12:31N 54°51' W 005°48'0 0.0
2014-Oct-16 11:33N 54°51' W 005°48'1413.6
2014-Oct-16 10:33N 54°57' W 005°27'1514.8
2014-Oct-16 09:33N 54°58' W 005°02'0 0.4
2014-Oct-16 08:33N 54°58' W 005°01'1313.2
2014-Oct-16 07:33N 54°57' W 005°24'1515.1
2014-Oct-16 06:33N 54°51' W 005°48'0 0.0
2014-Oct-16 05:33N 54°51' W 005°48'3 3.2
2014-Oct-16 04:33N 54°53' W 005°44'2120.3
2014-Oct-16 03:30N 55°01' W 005°10'6 6.5
2014-Oct-16 02:33N 54°58' W 005°01'0 0.0
2014-Oct-16 01:34N 54°58' W 005°01'5 5.4
2014-Oct-16 00:33N 55°02' W 005°08'1919.3
2014-Oct-15 23:33N 54°54' W 005°38'6 6.2
2014-Oct-15 22:33N 54°51' W 005°48'0 0.0
2014-Oct-15 21:33N 54°51' W 005°48'5 4.9
2014-Oct-15 20:33N 54°54' W 005°41'1817.9
2014-Oct-15 19:33N 55°01' W 005°13'8 7.3
2014-Oct-15 18:30N 54°58' W 005°01'0 0.0
2014-Oct-15 17:33N 54°58' W 005°01'1212.1
2014-Oct-15 16:33N 54°57' W 005°22'1615.4
2014-Oct-15 15:30N 54°51' W 005°48'0 0.0
2014-Oct-15 14:33N 54°51' W 005°48'1413.8
2014-Oct-15 13:33N 54°58' W 005°27'1513.8
2014-Oct-15 12:27N 54°58' W 005°01'0 0.0
2014-Oct-15 11:34N 54°58' W 005°01'1111.2
2014-Oct-15 10:34N 54°58' W 005°20'1717.3
2014-Oct-15 09:33N 54°51' W 005°48'0 0.0
2014-Oct-15 08:33N 54°51' W 005°48'1312.6
2014-Oct-15 07:33N 54°57' W 005°29'1615.0
2014-Oct-15 06:31N 54°58' W 005°02'1 0.5
2014-Oct-15 05:30N 54°58' W 005°01'6 5.6
2014-Oct-15 04:30N 55°02' W 005°08'1919.8
2014-Oct-15 03:33N 54°54' W 005°38'7 6.6
2014-Oct-15 02:34N 54°51' W 005°48'0 0.0
2014-Oct-15 01:33N 54°51' W 005°48'2 2.2
2014-Oct-15 00:33N 54°52' W 005°45'1818.0
2014-Oct-14 23:33N 54°60' W 005°17'9 9.3
2014-Oct-14 22:33N 54°58' W 005°01'0 0.0
2014-Oct-14 21:30N 54°58' W 005°01'6 6.3
2014-Oct-14 20:30N 55°01' W 005°10'1920.1
2014-Oct-14 19:32N 54°53' W 005°41'5 4.7
2014-Oct-14 18:31N 54°51' W 005°48'0 0.0
2014-Oct-14 17:33N 54°51' W 005°48'1414.1
2014-Oct-14 16:33N 54°58' W 005°26'1513.7
2014-Oct-14 15:30N 54°58' W 005°01'0 0.0
2014-Oct-14 14:33N 54°58' W 005°01'1110.9
2014-Oct-14 13:34N 54°58' W 005°20'1817.2
2014-Oct-14 12:32N 54°51' W 005°48'0 0.1
2014-Oct-14 11:33N 54°51' W 005°48'1615.5
2014-Oct-14 10:33N 54°59' W 005°25'1412.1
2014-Oct-14 09:26N 54°58' W 005°01'0 0.0
2014-Oct-14 08:32N 54°58' W 005°01'1110.8
2014-Oct-14 07:33N 54°58' W 005°19'1817.9
2014-Oct-14 06:33N 54°51' W 005°48'0 0.1
2014-Oct-14 05:30N 54°51' W 005°48'3 3.2
2014-Oct-14 04:33N 54°53' W 005°44'2420.3
2014-Oct-14 03:22N 55°01' W 005°04'3 4.1
2014-Oct-14 02:33N 54°58' W 005°01'0 0.0
2014-Oct-14 01:33N 54°58' W 005°01'6 5.8
2014-Oct-14 00:33N 55°02' W 005°08'1919.0
2014-Oct-13 23:33N 54°54' W 005°37'7 5.8
2014-Oct-13 22:25N 54°51' W 005°48'0 0.0
2014-Oct-13 21:34N 54°51' W 005°48'10 7.7
2014-Oct-13 20:14N 54°56' W 005°33'1815.5
2014-Oct-13 19:06N 54°59' W 005°02'1 1.8
2014-Oct-13 18:25N 54°58' W 005°01'0 0.0
2014-Oct-13 17:33N 54°58' W 005°01'1212.2
2014-Oct-13 16:33N 54°58' W 005°22'1616.2
2014-Oct-13 15:34N 54°51' W 005°48'0 0.1
2014-Oct-13 14:33N 54°51' W 005°48'1313.5
2014-Oct-13 13:34N 54°57' W 005°27'1514.9
2014-Oct-13 12:33N 54°58' W 005°01'0 0.3
2014-Oct-13 11:33N 54°58' W 005°01'1212.0
2014-Oct-13 10:33N 54°58' W 005°22'1616.5
2014-Oct-13 09:34N 54°51' W 005°48'0 0.1
2014-Oct-13 08:33N 54°51' W 005°48'1414.4
2014-Oct-13 07:33N 54°58' W 005°26'1513.9
2014-Oct-13 06:31N 54°58' W 005°01'0 0.0
2014-Oct-13 05:33N 54°58' W 005°01'7 6.6
2014-Oct-13 04:33N 55°01' W 005°11'1817.8
2014-Oct-13 03:33N 54°53' W 005°39'6 5.5
2014-Oct-13 02:34N 54°51' W 005°48'0 0.0
2014-Oct-13 01:34N 54°51' W 005°48'0 0.0
2014-Oct-13 00:33N 54°51' W 005°48'4 3.6
2014-Oct-12 23:33N 54°53' W 005°43'1918.5
2014-Oct-12 22:33N 55°01' W 005°13'8 7.8
2014-Oct-12 21:33N 54°58' W 005°01'7 6.6
2014-Oct-12 20:33N 55°01' W 005°11'1818.0
2014-Oct-12 19:33N 54°53' W 005°39'6 5.4
2014-Oct-12 18:32N 54°51' W 005°48'0 0.0
2014-Oct-12 17:33N 54°51' W 005°48'0 0.0
2014-Oct-12 16:33N 54°51' W 005°48'0 0.1
2014-Oct-12 15:33N 54°51' W 005°48'0 0.0
2014-Oct-12 14:33N 54°51' W 005°48'4 3.7
2014-Oct-12 13:33N 54°51' W 005°42'1413.5
2014-Oct-12 12:31N 54°39' W 005°52'2 1.7
2014-Oct-12 11:32N 54°37' W 005°54'0 0.0
2014-Oct-12 07:32N 54°37' W 005°54'0 0.0
2014-Oct-12 06:19N 54°37' W 005°54'  
Track history (hours):
 
Tides and Currents Weather Stations Pressure Air Temp Water Temp Dewpoint Dewpoint Depression Visibility Wind Speed Wind Dir Waves Ship Positions

European Causeway

Operator: P & O Irish Sea

Last reported at 2014-Oct-22 05:33 UTC. Time now 2014-Oct-22 06:31 UTC.
Position N 54°59' W 005°23'.

Length 165 m; draft 5.5 m.

Type: Ship (hazmat cat A). MMSI: 311027000.

Date/timePositionNaut miles runAvg speedWind from/ knotsBaromVisibWave heightAir tempDewpointWater temp
2014-Oct-22 05:33N 54°59' W 005°23'1312.5
2014-Oct-22 04:33N 54°58' W 005°01'0 0.0
2014-Oct-22 03:28N 54°58' W 005°01'0 0.0
2014-Oct-22 02:33N 54°58' W 005°01'0 0.0
2014-Oct-22 01:33N 54°58' W 005°01'1514.7
2014-Oct-22 00:33N 54°57' W 005°27'1313.6
2014-Oct-21 23:33N 54°51' W 005°48'0 0.0
2014-Oct-21 22:33N 54°51' W 005°48'0 0.0
2014-Oct-21 21:33N 54°51' W 005°48'1312.8
2014-Oct-21 20:33N 54°57' W 005°28'1515.4
2014-Oct-21 19:33N 54°58' W 005°02'0 0.5
2014-Oct-21 18:29N 54°58' W 005°01'0 0.0
2014-Oct-21 17:33N 54°58' W 005°01'0 0.0
2014-Oct-21 16:33N 54°58' W 005°01'0 0.0
2014-Oct-21 15:30N 54°58' W 005°01'0 0.0
2014-Oct-21 14:33N 54°58' W 005°01'0 0.0
2014-Oct-21 13:33N 54°58' W 005°01'0 0.0
2014-Oct-21 12:33N 54°58' W 005°01'0 0.0
2014-Oct-21 11:29N 54°58' W 005°01'0 0.0
2014-Oct-21 10:33N 54°58' W 005°01'0 0.0
2014-Oct-21 09:33N 54°58' W 005°01'0 0.0
2014-Oct-21 08:33N 54°58' W 005°01'0 0.0
2014-Oct-21 07:21N 54°58' W 005°01'0 0.0
2014-Oct-21 06:26N 54°58' W 005°01'0 0.0
2014-Oct-21 05:33N 54°58' W 005°01'0 0.0
2014-Oct-21 04:33N 54°58' W 005°01'0 0.0
2014-Oct-21 03:31N 54°58' W 005°01'0 0.0
2014-Oct-21 02:33N 54°58' W 005°01'0 0.0
2014-Oct-21 01:33N 54°58' W 005°01'6 5.6
2014-Oct-21 00:31N 55°01' W 005°09'2021.3
2014-Oct-20 23:33N 54°54' W 005°41'5 4.6
2014-Oct-20 22:34N 54°51' W 005°48'0 0.0
2014-Oct-20 21:31N 54°51' W 005°48'7 7.5
2014-Oct-20 20:33N 54°55' W 005°37'1716.0
2014-Oct-20 19:28N 55°01' W 005°09'6 4.7
2014-Oct-20 18:10N 54°58' W 005°01'0 0.1
2014-Oct-20 17:33N 54°58' W 005°01'1312.5
2014-Oct-20 16:33N 54°57' W 005°23'1615.2
2014-Oct-20 15:31N 54°51' W 005°48'0 0.0
2014-Oct-20 14:34N 54°51' W 005°48'1413.9
2014-Oct-20 13:33N 54°58' W 005°27'1514.0
2014-Oct-20 12:30N 54°58' W 005°01'0 0.1
2014-Oct-20 11:32N 54°58' W 005°01'1313.4
2014-Oct-20 10:33N 54°57' W 005°24'1515.3
2014-Oct-20 09:33N 54°51' W 005°48'0 0.0
2014-Oct-20 08:34N 54°51' W 005°48'1414.1
2014-Oct-20 07:33N 54°58' W 005°26'1413.8
2014-Oct-20 06:33N 54°58' W 005°02'1 0.9
2014-Oct-20 05:24N 54°58' W 005°01'5 6.1
2014-Oct-20 04:32N 55°02' W 005°07'1817.5
2014-Oct-20 03:31N 54°54' W 005°36'8 8.1
2014-Oct-20 02:33N 54°51' W 005°48'0 0.0
2014-Oct-20 01:33N 54°51' W 005°48'0 0.0
2014-Oct-20 00:33N 54°51' W 005°48'5 4.7
2014-Oct-19 23:34N 54°53' W 005°41'1716.8
2014-Oct-19 22:34N 55°00' W 005°14'8 8.2
2014-Oct-19 21:33N 54°58' W 005°01'6 5.6
2014-Oct-19 20:28N 55°02' W 005°09'1617.8
2014-Oct-19 19:33N 54°55' W 005°35'8 8.2
2014-Oct-19 18:33N 54°51' W 005°48'0 0.1
2014-Oct-19 17:33N 54°51' W 005°48'1615.6
2014-Oct-19 16:33N 54°58' W 005°24'1312.4
2014-Oct-19 15:30N 54°58' W 005°01'0 0.0
2014-Oct-19 14:33N 54°58' W 005°01'6 6.2
2014-Oct-19 13:33N 55°01' W 005°10'1917.7
2014-Oct-19 12:31N 54°54' W 005°39'6 6.2
2014-Oct-19 11:33N 54°51' W 005°48'0 0.0
2014-Oct-19 10:33N 54°51' W 005°48'0 0.0
2014-Oct-19 09:33N 54°51' W 005°48'0 0.0
2014-Oct-19 08:33N 54°51' W 005°48'1414.0
2014-Oct-19 07:33N 54°58' W 005°26'1413.7
2014-Oct-19 06:31N 54°58' W 005°02'1 0.6
2014-Oct-19 05:33N 54°58' W 005°01'0 0.0
2014-Oct-19 04:33N 54°58' W 005°01'0 0.0
2014-Oct-19 03:31N 54°58' W 005°01'0 0.0
2014-Oct-19 02:33N 54°58' W 005°01'0 0.0
2014-Oct-19 01:33N 54°58' W 005°01'0 0.0
2014-Oct-19 00:32N 54°58' W 005°01'0 0.0
2014-Oct-18 23:33N 54°58' W 005°01'0 0.0
2014-Oct-18 22:33N 54°58' W 005°01'0 0.0
2014-Oct-18 21:22N 54°58' W 005°01'5 6.6
2014-Oct-18 20:33N 55°02' W 005°07'1716.9
2014-Oct-18 19:33N 54°55' W 005°34'9 8.6
2014-Oct-18 18:33N 54°51' W 005°48'0 0.0
2014-Oct-18 17:33N 54°51' W 005°48'1413.6
2014-Oct-18 16:33N 54°57' W 005°27'1514.3
2014-Oct-18 15:32N 54°58' W 005°02'1 0.6
2014-Oct-18 14:33N 54°58' W 005°01'1111.3
2014-Oct-18 13:34N 54°58' W 005°21'1716.9
2014-Oct-18 12:33N 54°51' W 005°48'0 0.1
2014-Oct-18 11:33N 54°51' W 005°48'1514.9
2014-Oct-18 10:33N 54°58' W 005°25'1413.4
2014-Oct-18 09:31N 54°58' W 005°01'0 0.0
2014-Oct-18 08:33N 54°58' W 005°01'1211.9
2014-Oct-18 07:33N 54°58' W 005°21'1716.5
2014-Oct-18 06:33N 54°51' W 005°48'0 0.1
2014-Oct-18 05:33N 54°51' W 005°48'4 4.5
2014-Oct-18 04:33N 54°53' W 005°41'2019.3
2014-Oct-18 03:32N 55°02' W 005°10'7 6.7
2014-Oct-18 02:33N 54°58' W 005°01'0 0.0
2014-Oct-18 01:33N 54°58' W 005°01'5 5.4
2014-Oct-18 00:33N 55°02' W 005°07'1817.8
2014-Oct-17 23:33N 54°54' W 005°36'8 7.8
2014-Oct-17 22:33N 54°51' W 005°48'0 0.0
2014-Oct-17 21:33N 54°51' W 005°48'4 4.5
2014-Oct-17 20:33N 54°53' W 005°41'1717.3
2014-Oct-17 19:33N 55°01' W 005°14'8 7.9
2014-Oct-17 18:31N 54°58' W 005°01'0 0.0
2014-Oct-17 17:33N 54°58' W 005°01'1111.4
2014-Oct-17 16:33N 54°58' W 005°21'1717.0
2014-Oct-17 15:33N 54°51' W 005°48'0 0.0
2014-Oct-17 14:34N 54°51' W 005°48'1616.3
2014-Oct-17 13:33N 54°59' W 005°23'1312.1
2014-Oct-17 12:31N 54°58' W 005°01'0 0.0
2014-Oct-17 11:32N 54°58' W 005°01'1111.1
2014-Oct-17 10:33N 54°58' W 005°20'1817.6
2014-Oct-17 09:33N 54°51' W 005°48'0 0.0
2014-Oct-17 08:33N 54°51' W 005°48'1414.1
2014-Oct-17 07:33N 54°58' W 005°26'15 7.3
2014-Oct-17 05:33N 54°58' W 005°01'6 5.6
2014-Oct-17 04:30N 55°01' W 005°09'1717.6
2014-Oct-17 03:33N 54°54' W 005°35'8 8.2
2014-Oct-17 02:33N 54°51' W 005°48'0 0.0
2014-Oct-17 01:33N 54°51' W 005°48'5 4.3
2014-Oct-17 00:31N 54°53' W 005°41'1717.6
2014-Oct-16 23:33N 55°00' W 005°15'8 8.3
2014-Oct-16 22:33N 54°58' W 005°01'0 0.0
2014-Oct-16 21:31N 54°58' W 005°01'6 5.6
2014-Oct-16 20:28N 55°02' W 005°09'1819.6
2014-Oct-16 19:32N 54°54' W 005°37'7 6.8
2014-Oct-16 18:33N 54°51' W 005°48'0 0.0
2014-Oct-16 17:33N 54°51' W 005°48'1414.4
2014-Oct-16 16:33N 54°58' W 005°26'1413.7
2014-Oct-16 15:31N 54°58' W 005°01'0 0.1
2014-Oct-16 14:33N 54°58' W 005°01'1312.7
2014-Oct-16 13:33N 54°57' W 005°23'1615.0
2014-Oct-16 12:31N 54°51' W 005°48'0 0.0
2014-Oct-16 11:33N 54°51' W 005°48'1413.6
2014-Oct-16 10:33N 54°57' W 005°27'1514.8
2014-Oct-16 09:33N 54°58' W 005°02'0 0.4
2014-Oct-16 08:33N 54°58' W 005°01'1313.2
2014-Oct-16 07:33N 54°57' W 005°24'1515.1
2014-Oct-16 06:33N 54°51' W 005°48'0 0.0
2014-Oct-16 05:33N 54°51' W 005°48'3 3.2
2014-Oct-16 04:33N 54°53' W 005°44'2120.3
2014-Oct-16 03:30N 55°01' W 005°10'6 6.5
2014-Oct-16 02:33N 54°58' W 005°01'0 0.0
2014-Oct-16 01:34N 54°58' W 005°01'5 5.4
2014-Oct-16 00:33N 55°02' W 005°08'1919.3
2014-Oct-15 23:33N 54°54' W 005°38'6 6.2
2014-Oct-15 22:33N 54°51' W 005°48'0 0.0
2014-Oct-15 21:33N 54°51' W 005°48'5 4.9
2014-Oct-15 20:33N 54°54' W 005°41'1817.9
2014-Oct-15 19:33N 55°01' W 005°13'8 7.3
2014-Oct-15 18:30N 54°58' W 005°01'0 0.0
2014-Oct-15 17:33N 54°58' W 005°01'1212.1
2014-Oct-15 16:33N 54°57' W 005°22'1615.4
2014-Oct-15 15:30N 54°51' W 005°48'0 0.0
2014-Oct-15 14:33N 54°51' W 005°48'1413.8
2014-Oct-15 13:33N 54°58' W 005°27'1513.8
2014-Oct-15 12:27N 54°58' W 005°01'0 0.0
2014-Oct-15 11:34N 54°58' W 005°01'1111.2
2014-Oct-15 10:34N 54°58' W 005°20'1717.3
2014-Oct-15 09:33N 54°51' W 005°48'0 0.0
2014-Oct-15 08:33N 54°51' W 005°48'1312.6
2014-Oct-15 07:33N 54°57' W 005°29'1615.0
2014-Oct-15 06:31N 54°58' W 005°02'1 0.5
2014-Oct-15 05:30N 54°58' W 005°01'6 5.6
2014-Oct-15 04:30N 55°02' W 005°08'1919.8
2014-Oct-15 03:33N 54°54' W 005°38'7 6.6
2014-Oct-15 02:34N 54°51' W 005°48'0 0.0
2014-Oct-15 01:33N 54°51' W 005°48'2 2.2
2014-Oct-15 00:33N 54°52' W 005°45'1818.0
2014-Oct-14 23:33N 54°60' W 005°17'9 9.3
2014-Oct-14 22:33N 54°58' W 005°01'0 0.0
2014-Oct-14 21:30N 54°58' W 005°01'6 6.3
2014-Oct-14 20:30N 55°01' W 005°10'1920.1
2014-Oct-14 19:32N 54°53' W 005°41'5 4.7
2014-Oct-14 18:31N 54°51' W 005°48'0 0.0
2014-Oct-14 17:33N 54°51' W 005°48'1414.1
2014-Oct-14 16:33N 54°58' W 005°26'1513.7
2014-Oct-14 15:30N 54°58' W 005°01'0 0.0
2014-Oct-14 14:33N 54°58' W 005°01'1110.9
2014-Oct-14 13:34N 54°58' W 005°20'1817.2
2014-Oct-14 12:32N 54°51' W 005°48'0 0.1
2014-Oct-14 11:33N 54°51' W 005°48'1615.5
2014-Oct-14 10:33N 54°59' W 005°25'1412.1
2014-Oct-14 09:26N 54°58' W 005°01'0 0.0
2014-Oct-14 08:32N 54°58' W 005°01'1110.8
2014-Oct-14 07:33N 54°58' W 005°19'1817.9
2014-Oct-14 06:33N 54°51' W 005°48'0 0.1
2014-Oct-14 05:30N 54°51' W 005°48'3 3.2
2014-Oct-14 04:33N 54°53' W 005°44'2420.3
2014-Oct-14 03:22N 55°01' W 005°04'3 4.1
2014-Oct-14 02:33N 54°58' W 005°01'0 0.0
2014-Oct-14 01:33N 54°58' W 005°01'6 5.8
2014-Oct-14 00:33N 55°02' W 005°08'1919.0
2014-Oct-13 23:33N 54°54' W 005°37'7 5.8
2014-Oct-13 22:25N 54°51' W 005°48'0 0.0
2014-Oct-13 21:34N 54°51' W 005°48'10 7.7
2014-Oct-13 20:14N 54°56' W 005°33'1815.5
2014-Oct-13 19:06N 54°59' W 005°02'1 1.8
2014-Oct-13 18:25N 54°58' W 005°01'0 0.0
2014-Oct-13 17:33N 54°58' W 005°01'1212.2
2014-Oct-13 16:33N 54°58' W 005°22'1616.2
2014-Oct-13 15:34N 54°51' W 005°48'0 0.1
2014-Oct-13 14:33N 54°51' W 005°48'1313.5
2014-Oct-13 13:34N 54°57' W 005°27'1514.9
2014-Oct-13 12:33N 54°58' W 005°01'0 0.3
2014-Oct-13 11:33N 54°58' W 005°01'1212.0
2014-Oct-13 10:33N 54°58' W 005°22'1616.5
2014-Oct-13 09:34N 54°51' W 005°48'0 0.1
2014-Oct-13 08:33N 54°51' W 005°48'1414.4
2014-Oct-13 07:33N 54°58' W 005°26'1513.9
2014-Oct-13 06:31N 54°58' W 005°01'0 0.0
2014-Oct-13 05:33N 54°58' W 005°01'7 6.6
2014-Oct-13 04:33N 55°01' W 005°11'1817.8
2014-Oct-13 03:33N 54°53' W 005°39'6 5.5
2014-Oct-13 02:34N 54°51' W 005°48'0 0.0
2014-Oct-13 01:34N 54°51' W 005°48'0 0.0
2014-Oct-13 00:33N 54°51' W 005°48'4 3.6
2014-Oct-12 23:33N 54°53' W 005°43'1918.5
2014-Oct-12 22:33N 55°01' W 005°13'8 7.8
2014-Oct-12 21:33N 54°58' W 005°01'7 6.6
2014-Oct-12 20:33N 55°01' W 005°11'1818.0
2014-Oct-12 19:33N 54°53' W 005°39'6 5.4
2014-Oct-12 18:32N 54°51' W 005°48'0 0.0
2014-Oct-12 17:33N 54°51' W 005°48'0 0.0
2014-Oct-12 16:33N 54°51' W 005°48'0 0.1
2014-Oct-12 15:33N 54°51' W 005°48'0 0.0
2014-Oct-12 14:33N 54°51' W 005°48'4 3.7
2014-Oct-12 13:33N 54°51' W 005°42'1413.5
2014-Oct-12 12:31N 54°39' W 005°52'2 1.7
2014-Oct-12 11:32N 54°37' W 005°54'0 0.0
2014-Oct-12 07:32N 54°37' W 005°54'0 0.0
2014-Oct-12 06:19N 54°37' W 005°54'  

Dump ship's entire track history